sat.trackr.live / text

‹ back to catalog

USA 134

NORAD 25019 · 1997-065A

PAYLOAD ACTIVE UNKNOWN

§ Identity

Operator
Country
US
Launch date
1997-10-25
Launch site
AFETR
Launch vehicle
Mass (kg)
RCS (m²)

Purposes: comms

External: N2YO · Heavens-Above · Gunter

§ Orbital elements

Epoch: 2026-09-12T10:11:38.584896Z

Period
1,436.12 min
Inclination
12.8877°
Eccentricity
0.0002635
Mean motion
1.00270136 rev/d
Perigee alt
35,775.9 km
Apogee alt
35,798.2 km
Semi-major
42,165.2 km
B*
0.0000e+0
RAAN
21.0514°
Arg perigee
273.6534°
Mean anomaly
97.4833°
Rev number
3,383

§ Raw data

USA 1341 25019U 97065A   26255.42475214 -.00000073  00000+0  00000+0 0  99922 25019  12.8877  21.0514 0002635 273.6534  97.4833  1.00270136 33832

JSON: /api/v1/satellites/25019 · /tle

For live sub-satellite position, see the globe view (requires WebGL).

§ Visibility from observer

Set your observer location to see the next 7 days of passes ≥ 10°. The values pass through the URL so the page stays shareable.

No JS? Fill the form by hand. The geolocation button needs JavaScript.